GW7732 Weather Reports


Display with metric or nautical units.
time (UTC)temp
F
wind
direction
speed
MPH
gust
MPH
rain 1hr
in
rain 24hr
in
rain mn
in
humidity
%
barometer
mb
20260906090315 74 0.0 1.0 0.00 0.00 0.00 93 1010.7
20260906085156 74 8 0.0 1.0 0.00 0.00 0.00 93 1010.8
20260906083916 74 8 0.0 1.0 0.00 0.00 0.00 93 1010.7
20260906082735 74 8 0.0 1.0 0.00 0.00 0.00 93 1010.6
20260906081515 74 8 1.0 1.0 0.00 0.00 0.00 93 1010.5
20260906080315 74 0.0 1.0 0.00 0.00 0.00 93 1010.5
20260906075115 74 8 1.0 2.0 0.00 0.00 0.00 92 1010.5
20260906073915 75 8 1.0 2.0 0.00 0.00 0.00 92 1010.6
20260906072715 75 8 1.0 2.0 0.00 0.00 0.00 91 1010.6
20260906071515 75 18 2.0 2.0 0.00 0.00 0.00 90 1010.7
20260906070315 75 18 1.0 2.0 0.00 0.00 0.00 89 1010.7
20260906065115 76 9 1.0 2.0 0.00 0.00 0.00 87 1010.8
20260906063915 76 9 1.0 2.0 0.00 0.00 0.00 86 1010.7
20260906062715 77 258 1.0 1.0 0.00 0.00 0.00 85 1010.6
20260906061535 77 258 1.0 2.0 0.00 0.00 0.00 84 1010.9
20260906060316 77 258 0.0 1.0 0.00 0.00 0.00 84 1011.2
20260906055115 77 258 0.0 2.0 0.00 0.00 0.00 83 1011.2
20260906053935 78 254 1.0 1.0 0.00 0.00 0.00 83 1011.4
20260906052715 78 248 0.0 1.0 0.00 0.00 0.00 82 1011.5
20260906051535 78 249 1.0 2.0 0.00 0.00 0.00 80 1011.4
20260906050315 78 354 0.0 1.0 0.00 0.00 0.00 80 1011.5
20260906045115 79 354 1.0 2.0 0.00 0.00 0.00 78 1011.7
20260906043935 79 137 1.0 3.0 0.00 0.00 0.00 76 1011.5
20260906042715 80 196 1.0 3.0 0.00 0.00 0.00 76 1011.4
20260906041515 80 190 2.0 3.0 0.00 0.00 0.00 76 1011.4
20260906040315 79 4 0.0 1.0 0.00 0.00 0.00 77 1011.9
20260906035115 79 4 0.0 1.0 0.00 0.00 0.00 77 1012.1
20260906033935 79 82 1.0 1.0 0.00 0.00 0.00 78 1012.2
20260906032715 79 11 0.0 2.0 0.00 0.00 0.00 77 1012.0
20260906031515 80 54 1.0 2.0 0.00 0.00 0.00 75 1011.9
20260906030315 80 91 1.0 3.0 0.00 0.00 0.00 74 1012.0
20260906025115 80 121 1.0 2.0 0.00 0.00 0.00 74 1011.8
20260906023915 80 114 0.0 1.0 0.00 0.00 0.00 75 1011.8
20260906022715 80 0.0 0.0 0.00 0.00 0.00 75 1012.0
20260906021515 80 0.0 1.0 0.00 0.00 0.00 75 1012.0
20260906020315 80 77 0.0 1.0 0.00 0.00 0.00 76 1011.9
20260906015115 81 74 0.0 2.0 0.00 0.00 0.00 76 1011.7
20260906013915 81 73 1.0 1.0 0.00 0.00 0.00 76 1011.6
20260906012715 81 73 1.0 2.0 0.00 0.00 0.00 75 1011.5
20260906011515 81 179 2.0 4.0 0.00 0.00 0.00 74 1011.5
20260906010315 82 261 1.0 1.0 0.00 0.00 0.00 73 1011.4
20260906005115 82 53 0.0 2.0 0.00 0.00 0.00 73 1011.0
20260906003915 83 359 1.0 2.0 0.00 0.00 0.00 71 1010.9
20260906002715 84 22 1.0 2.0 0.00 0.00 0.00 70 1010.6
20260906001515 85 354 1.0 2.0 0.00 0.00 0.00 66 1010.3
20260906000335 85 315 1.0 2.0 0.00 0.00 0.00 64 1010.5
20260905235135 86 315 0.0 2.0 0.00 0.00 0.00 63 1010.4
20260905233915 87 289 2.0 3.0 0.00 0.00 0.00 61 1010.7
20260905232715 87 163 1.0 3.0 0.00 0.00 0.00 59 1010.7
20260905231514 88 92 2.0 6.0 0.00 0.00 0.00 58 1010.6
20260905230315 89 324 1.0 2.0 0.00 0.00 0.00 58 1010.9
20260905225115 90 76 3.0 8.0 0.00 0.00 0.00 56 1010.6
20260905223915 94 19 2.0 3.0 0.00 0.00 0.00 50 1010.4
20260905222715 98 11 1.0 2.0 0.00 0.00 0.00 43 1009.9
20260905221537 100 3 0.0 2.0 0.00 0.00 0.00 40 1009.9
20260905220337 100 354 1.0 2.0 0.00 0.00 0.00 40 1009.8
20260905215117 101 248 1.0 3.0 0.00 0.00 0.00 40 1009.5
20260905213917 101 272 1.0 2.0 0.00 0.00 0.00 38 1009.6
20260905212716 100 349 1.0 3.0 0.00 0.00 0.00 39 1009.7
20260905211517 100 32 1.0 2.0 0.00 0.00 0.00 37 1010.0
20260905210316 100 346 1.0 4.0 0.00 0.00 0.00 38 1010.1
20260905205136 99 316 1.0 3.0 0.00 0.00 0.00 38 1010.0
20260905203917 98 261 2.0 6.0 0.00 0.00 0.00 43 1010.0
20260905202716 98 176 4.0 7.0 0.00 0.00 0.00 44 1010.0
20260905201537 98 183 1.0 4.0 0.00 0.00 0.00 44 1010.1
20260905200316 97 204 2.0 8.0 0.00 0.00 0.00 46 1010.4
20260905195157 97 39 1.0 2.0 0.00 0.00 0.00 48 1010.6
20260905193916 96 152 2.0 4.0 0.00 0.00 0.00 50 1010.7
20260905192716 96 4 0.0 3.0 0.00 0.00 0.00 49 1010.7
20260905191516 97 338 1.0 3.0 0.00 0.00 0.00 49 1010.9
20260905190336 97 88 2.0 4.0 0.00 0.00 0.00 50 1011.1
20260905185116 97 178 3.0 6.0 0.00 0.00 0.00 49 1011.2
20260905183916 97 336 1.0 3.0 0.00 0.00 0.00 50 1011.4
20260905182716 97 342 2.0 7.0 0.00 0.00 0.00 50 1011.6
20260905181516 96 28 2.0 4.0 0.00 0.00 0.00 52 1011.7
20260905180316 95 339 1.0 2.0 0.00 0.00 0.00 54 1011.9
20260905175116 94 313 1.0 2.0 0.00 0.00 0.00 54 1012.1
20260905173916 96 296 2.0 4.0 0.00 0.00 0.00 51 1012.2
20260905172756 95 326 1.0 3.0 0.00 0.00 0.00 53 1012.4
20260905171516 94 181 3.0 5.0 0.00 0.00 0.00 54 1012.5
20260905170336 93 97 2.0 4.0 0.00 0.00 0.00 54 1012.7
20260905165156 92 282 2.0 3.0 0.00 0.00 0.00 58 1012.9
20260905163916 92 329 1.0 3.0 0.00 0.00 0.00 58 1013.2
20260905162716 92 32 1.0 4.0 0.00 0.00 0.00 59 1013.5
20260905161536 92 175 3.0 6.0 0.00 0.00 0.00 58 1013.6
20260905160338 92 6 1.0 3.0 0.00 0.00 0.00 58 1013.7
20260905155136 91 348 1.0 3.0 0.00 0.00 0.00 62 1013.8
20260905153916 91 289 2.0 4.0 0.00 0.00 0.00 62 1013.8
20260905152716 90 73 1.0 3.0 0.00 0.00 0.00 65 1013.9
20260905151516 90 104 2.0 4.0 0.00 0.00 0.00 65 1014.0
20260905150315 89 308 2.0 3.0 0.00 0.00 0.00 66 1014.2
20260905145116 89 258 2.0 4.0 0.00 0.00 0.00 67 1014.3
20260905143956 88 347 1.0 3.0 0.00 0.00 0.00 70 1014.4
20260905142716 88 314 1.0 4.0 0.00 0.00 0.00 72 1014.4
20260905141516 87 292 1.0 2.0 0.00 0.00 0.00 73 1014.4
20260905140336 85 334 0.0 2.0 0.00 0.00 0.00 77 1014.4
20260905135116 83 354 0.0 2.0 0.00 0.00 0.00 83 1014.5
20260905133916 80 45 0.0 1.0 0.00 0.00 0.00 89 1014.5
20260905132756 78 348 1.0 3.0 0.00 0.00 0.00 94 1014.5
20260905131516 76 303 1.0 2.0 0.00 0.00 0.00 96 1014.5
20260905130315 74 234 1.0 2.0 0.00 0.00 0.00 96 1014.6
20260905125116 74 197 2.0 4.0 0.00 0.00 0.00 96 1014.6
20260905123916 74 202 3.0 5.0 0.00 0.00 0.00 96 1014.5
20260905122735 73 209 3.0 4.0 0.00 0.00 0.00 96 1014.4
20260905121515 73 182 3.0 6.0 0.00 0.00 0.00 96 1014.5
20260905120315 73 209 2.0 3.0 0.00 0.00 0.00 96 1014.3
20260905115115 73 209 1.0 2.0 0.00 0.00 0.00 96 1014.3
20260905113955 73 209 1.0 2.0 0.00 0.00 0.00 96 1014.1
20260905112755 73 210 0.0 1.0 0.00 0.00 0.00 96 1014.0
20260905111515 73 209 0.0 1.0 0.00 0.00 0.00 96 1014.0
20260905110335 73 210 0.0 1.0 0.00 0.00 0.00 96 1014.0
20260905105115 73 209 1.0 2.0 0.00 0.00 0.00 95 1013.8
20260905103915 73 209 1.0 2.0 0.00 0.00 0.00 95 1013.8
20260905102715 74 210 0.0 1.0 0.00 0.00 0.00 95 1013.6
20260905101515 74 209 0.0 1.0 0.00 0.00 0.00 95 1013.7
20260905100315 74 209 0.0 2.0 0.00 0.00 0.00 96 1013.5
20260905095115 74 209 1.0 2.0 0.00 0.00 0.00 96 1013.6
20260905093915 74 209 0.0 1.0 0.00 0.00 0.00 95 1013.6
20260905092715 74 209 0.0 1.0 0.00 0.00 0.00 95 1013.4
20260905091515 74 209 0.0 1.0 0.00 0.00 0.00 95 1013.3